This demonstration page uses our WeatherBlox Daily Observations layout. Learn more.

Left ArrowRight Arrow

Hourly Observations for February 9, 2015

Temp ( °F °C ) Dew Point ( °F °C ) Humidity (%) Winds ( mph kmh ) Pressure ( in mb ) Visibility ( mi km ) Precip ( " mm )
12:41 am 00:41 Mostly Cloudy 59 15 52 11.1 78 78 S 38 61 29.74 1007 10 16 0.00 0.00
12:53 am 00:53 Mostly Cloudy 59 15 52 11.1 78 78 S 31 50 29.74 1007 10 16 0.00 0.00
1:53 am 01:53 Cloudy 59 15 51 10.6 75 75 S 40 65 29.77 1008 10 16 0.00 0.00
2:53 am 02:53 Cloudy 58 14.4 52 11.1 81 81 S 37 59 29.82 1010 10 16 0.00 0.00
3:14 am 03:14 Cloudy 57 14 52 11 82 82 S 29 46 29.85 1011 10 16 0.00 0.00
3:46 am 03:46 Cloudy 58 14.4 52 11.1 81 81 S 35 56 29.85 1011 10 16 0.00 0.00
3:53 am 03:53 Cloudy 57 13.9 52 11.1 83 83 S 36 57 29.85 1011 10 16 0.00 0.00
4:12 am 04:12 Cloudy 57 14 52 11 82 82 S 28 44 29.88 1012 10 16 0.00 0.00
4:53 am 04:53 Cloudy with Light Rain 57 13.9 52 11.1 83 83 S 21 33 29.93 1014 10 16 0.00 0.03
5:04 am 05:04 Cloudy with Light Rain 57 14 52 11 82 82 SW 12 19 29.97 1015 10 16 0.00 0.00
5:19 am 05:19 Cloudy with Light Rain 57 14 52 11 82 82 W 12 19 29.97 1015 10 16 0.00 0.00
5:44 am 05:44 Cloudy with Light Rain 57 14 52 11 82 82 WSW 15 24 30.00 1016 10 16 0.00 0.00
5:53 am 05:53 Cloudy with Rain 57 13.9 51 10.6 81 81 W 14 22 29.98 1015 8 13 0.09 2.29
6:53 am 06:53 Mostly Cloudy 56 13.3 51 10.6 84 84 S 21 33 30.02 1017 10 16 0.17 4.32
7:53 am 07:53 Cloudy with Light Rain 56 13.3 51 10.6 84 84 S 20 31 30.06 1018 9 14 0.00 0.03
8:53 am 08:53 Cloudy 57 13.9 51 10.6 81 81 S 20 31 30.09 1019 10 16 0.01 0.25
9:45 am 09:45 Cloudy 58 14.4 52 11.1 81 81 S 17 28 30.12 1020 10 16 0.00 0.03
9:53 am 09:53 Cloudy 58 14.4 52 11.1 81 81 S 17 28 30.11 1020 10 16 0.00 0.03
10:53 am 10:53 Mostly Cloudy 59 15 51 10.6 75 75 S 18 30 30.13 1020 10 16 0.00 0.00
11:53 am 11:53 Mostly Cloudy 60 15.6 51 10.6 72 72 SSW 10 17 30.14 1021 10 16 0.00 0.00
12:45 pm 12:45 Mostly Cloudy with Light Rain 60 15.6 51 10.6 72 72 SSW 20 31 30.09 1019 10 16 0.00 0.03
12:53 pm 12:53 Cloudy 60 15.6 51 10.6 72 72 S 16 26 30.12 1020 10 16 0.01 0.25
1:23 pm 13:23 Cloudy with Thunderstorms 59 15 50 10 72 72 S 15 24 30.12 1020 10 16 0.02 0.51
1:37 pm 13:37 Cloudy with Strong Thunderstorms 56 13.3 51 10.6 84 84 W 16 26 30.15 1021 2 3 0.07 1.78
1:45 pm 13:45 Cloudy with Strong Thunderstorms 57 13.9 52 11.1 83 83 SSW 12 19 30.12 1020 7 11 0.20 5.08
1:53 pm 13:53 Cloudy with Thunderstorms 58 14.4 51 10.6 78 78 ESE 14 22 30.11 1020 7 11 0.30 7.62
2:00 pm 14:00 Mostly Cloudy with Thunderstorms 57 14 48 9 72 72 SW 5 7 30.12 1020 3 4 0.00 0.00
2:07 pm 14:07 Mostly Cloudy with Thunderstorms 56 13.3 48 8.9 75 75 S 8 13 30.12 1020 10 16 0.01 0.25
2:42 pm 14:42 Mostly Sunny 57 14 52 11 82 82 Calm 30.12 1020 10 16 0.00 0.00
2:53 pm 14:53 Mostly Sunny 58 14.4 50 10 75 75 ESE 7 11 30.13 1020 10 16 0.01 0.25
3:07 pm 15:07 Mostly Cloudy with Nearby Thunderstorms 57 13.9 51 10.6 81 81 SSE 8 13 30.15 1021 10 16 0.00 0.00
3:22 pm 15:22 Partly Cloudy 57 14 52 11 82 82 SSE 6 9 30.15 1021 10 16 0.00 0.00
3:53 pm 15:53 Sunny 60 15.6 52 11.1 75 75 E 6 9 30.13 1020 10 16 0.00 0.00
4:53 pm 16:53 Partly Cloudy 59 15 52 11.1 78 78 S 7 11 30.15 1021 10 16 0.00 0.00
5:53 pm 17:53 Clear 55 12.8 51 10.6 87 87 NNW 3 6 30.17 1022 10 16 0.00 0.00
6:53 pm 18:53 Clear 53 11.7 49 9.4 86 86 E 3 6 30.19 1022 10 16 0.00 0.00
7:53 pm 19:53 Clear 51 10.6 48 8.9 89 89 Calm 30.21 1023 10 16 0.00 0.00
8:53 pm 20:53 Clear 48 8.9 46 7.8 93 93 Calm 30.22 1023 10 16 0.00 0.00
9:53 pm 21:53 Clear 47 8.3 45 7.2 93 93 Calm 30.24 1024 10 16 0.00 0.00
10:53 pm 22:53 Clear 45 7.2 44 6.7 97 97 N 3 6 30.25 1024 10 16 0.00 0.00
11:53 pm 23:53 Clear 45 7.2 43 6.1 93 93 N 5 7 30.25 1024 10 16 0.00 0.00

Powered by AerisWeather